Year,Month,Day,Hour,Minute,Value (Times are PST for temperature in C)
2009,06,01,00,00,14.60
2009,06,01,00,01,14.60
2009,06,01,00,02,14.60
2009,06,01,00,03,14.50
2009,06,01,00,04,14.50
2009,06,01,00,05,14.50
2009,06,01,00,06,14.40
2009,06,01,00,07,14.40
2009,06,01,00,08,14.40
2009,06,01,00,09,14.40
2009,06,01,00,10,14.30
2009,06,01,00,11,14.30
2009,06,01,00,12,14.30
2009,06,01,00,13,14.30
2009,06,01,00,14,14.30
2009,06,01,00,15,14.20
2009,06,01,00,16,14.20
2009,06,01,00,17,14.20
2009,06,01,00,18,14.20
2009,06,01,00,19,14.10
2009,06,01,00,20,14.10
2009,06,01,00,21,14.10
2009,06,01,00,22,14.10
2009,06,01,00,23,14.00
2009,06,01,00,24,14.00
2009,06,01,00,25,14.00
2009,06,01,00,26,14.00
2009,06,01,00,27,13.90
2009,06,01,00,28,13.90
2009,06,01,00,29,13.90
2009,06,01,00,30,13.90
2009,06,01,00,31,13.90
2009,06,01,00,32,13.80
2009,06,01,00,33,13.80
2009,06,01,00,34,13.80
2009,06,01,00,35,13.80
2009,06,01,00,36,13.70
2009,06,01,00,37,13.70
2009,06,01,00,38,13.70
2009,06,01,00,39,13.70
2009,06,01,00,40,13.70
2009,06,01,00,41,13.70
2009,06,01,00,42,13.60
2009,06,01,00,43,13.60
2009,06,01,00,44,13.60
2009,06,01,00,45,13.60
2009,06,01,00,46,13.60
2009,06,01,00,47,13.60
2009,06,01,00,48,13.60
2009,06,01,00,49,13.60
2009,06,01,00,50,13.70
2009,06,01,00,51,13.70
2009,06,01,00,52,13.70
2009,06,01,00,53,13.70
2009,06,01,00,54,13.70
2009,06,01,00,55,13.70
2009,06,01,00,56,13.70
2009,06,01,00,57,13.70
2009,06,01,00,58,13.80
2009,06,01,00,59,13.80
2009,06,01,01,00,13.80
2009,06,01,01,01,13.80
2009,06,01,01,02,13.80
2009,06,01,01,03,13.80
2009,06,01,01,04,13.70
2009,06,01,01,05,13.70
2009,06,01,01,06,13.70
2009,06,01,01,07,13.70
2009,06,01,01,08,13.70
2009,06,01,01,09,13.70
2009,06,01,01,10,13.80
2009,06,01,01,11,13.80
2009,06,01,01,12,13.90
2009,06,01,01,13,13.90
2009,06,01,01,14,13.90
2009,06,01,01,15,13.90
2009,06,01,01,16,14.00
2009,06,01,01,17,14.00
2009,06,01,01,18,14.00
2009,06,01,01,19,14.10
2009,06,01,01,20,14.10
2009,06,01,01,21,14.10
2009,06,01,01,22,14.10
2009,06,01,01,23,14.10
2009,06,01,01,24,14.10
2009,06,01,01,25,14.10
2009,06,01,01,26,14.10
2009,06,01,01,27,14.10
2009,06,01,01,28,14.10
2009,06,01,01,29,14.10
2009,06,01,01,30,14.20
2009,06,01,01,31,14.20
2009,06,01,01,32,14.20
2009,06,01,01,33,14.20
2009,06,01,01,34,14.20
2009,06,01,01,35,14.30
2009,06,01,01,36,14.30
2009,06,01,01,37,14.30
2009,06,01,01,38,14.30
2009,06,01,01,39,14.30
2009,06,01,01,40,14.30
2009,06,01,01,41,14.30
2009,06,01,01,42,14.30
2009,06,01,01,43,14.30
2009,06,01,01,44,14.30
2009,06,01,01,45,14.30
2009,06,01,01,46,14.30
2009,06,01,01,47,14.30
2009,06,01,01,48,14.20
2009,06,01,01,49,14.20
2009,06,01,01,50,14.20
2009,06,01,01,51,14.20
2009,06,01,01,52,14.20
2009,06,01,01,53,14.20
2009,06,01,01,54,14.20
2009,06,01,01,55,14.10
2009,06,01,01,56,14.10
2009,06,01,01,57,14.10
2009,06,01,01,58,14.10
2009,06,01,01,59,14.10
2009,06,01,02,00,14.10
2009,06,01,02,01,14.10
2009,06,01,02,02,14.10
2009,06,01,02,03,14.10
2009,06,01,02,04,14.10
2009,06,01,02,05,14.10
2009,06,01,02,06,14.10
2009,06,01,02,07,14.10
2009,06,01,02,08,14.00
2009,06,01,02,09,14.00
2009,06,01,02,10,14.00
2009,06,01,02,11,14.00
2009,06,01,02,12,14.00
2009,06,01,02,13,13.90
2009,06,01,02,14,13.90
2009,06,01,02,15,13.90
2009,06,01,02,16,13.90
2009,06,01,02,17,13.90
2009,06,01,02,18,13.90
2009,06,01,02,19,13.90
2009,06,01,02,20,13.90
2009,06,01,02,21,13.90
2009,06,01,02,22,13.90
2009,06,01,02,23,13.90
2009,06,01,02,24,13.90
2009,06,01,02,25,13.90
2009,06,01,02,26,13.90
2009,06,01,02,27,13.90
2009,06,01,02,28,13.90
2009,06,01,02,29,13.90
2009,06,01,02,30,13.90
2009,06,01,02,31,13.90
2009,06,01,02,32,13.90
2009,06,01,02,33,13.80
2009,06,01,02,34,13.80
2009,06,01,02,35,13.80
2009,06,01,02,36,13.80
2009,06,01,02,37,13.80
2009,06,01,02,38,13.80
2009,06,01,02,39,13.80
2009,06,01,02,40,13.80
2009,06,01,02,41,13.80
2009,06,01,02,42,13.80
2009,06,01,02,43,13.80
2009,06,01,02,44,13.80
2009,06,01,02,45,13.80
2009,06,01,02,46,13.80
2009,06,01,02,47,13.80
2009,06,01,02,48,13.80
2009,06,01,02,49,13.80
2009,06,01,02,50,13.80
2009,06,01,02,51,13.80
2009,06,01,02,52,13.70
2009,06,01,02,53,13.70
2009,06,01,02,54,13.70
2009,06,01,02,55,13.70
2009,06,01,02,56,13.70
2009,06,01,02,57,13.70
2009,06,01,02,58,13.70
2009,06,01,02,59,13.70
2009,06,01,03,00,13.70
2009,06,01,03,01,13.70
2009,06,01,03,02,13.70
2009,06,01,03,03,13.70
2009,06,01,03,04,13.70
2009,06,01,03,05,13.70
2009,06,01,03,06,13.70
2009,06,01,03,07,13.70
2009,06,01,03,08,13.80
2009,06,01,03,09,13.80
2009,06,01,03,10,13.70
2009,06,01,03,11,13.70
2009,06,01,03,12,13.70
2009,06,01,03,13,13.70
2009,06,01,03,14,13.60
2009,06,01,03,15,13.60
2009,06,01,03,16,13.60
2009,06,01,03,17,13.60
2009,06,01,03,18,13.50
2009,06,01,03,19,13.50
2009,06,01,03,20,13.50
2009,06,01,03,21,13.50
2009,06,01,03,22,13.40
2009,06,01,03,23,13.40
2009,06,01,03,24,13.40
2009,06,01,03,25,13.40
2009,06,01,03,26,13.40
2009,06,01,03,27,13.40
2009,06,01,03,28,13.40
2009,06,01,03,29,13.30
2009,06,01,03,30,13.30
2009,06,01,03,31,13.30
2009,06,01,03,32,13.20
2009,06,01,03,33,13.20
2009,06,01,03,34,13.20
2009,06,01,11,34,23.80
2009,06,01,11,35,23.80
2009,06,01,11,36,23.80
2009,06,01,11,37,23.90
2009,06,01,11,38,23.90
2009,06,01,11,39,23.90
2009,06,01,11,40,23.90
2009,06,01,11,41,23.90
2009,06,01,11,42,23.90
2009,06,01,11,43,24.00
2009,06,01,11,44,24.00
2009,06,01,11,45,24.10
2009,06,01,11,46,24.10
2009,06,01,11,47,24.20
2009,06,01,11,48,24.20
2009,06,01,11,49,24.30
2009,06,01,11,50,24.30
2009,06,01,11,51,24.40
2009,06,01,11,52,24.50
2009,06,01,11,53,24.50
2009,06,01,11,54,24.50
2009,06,01,11,55,24.60
2009,06,01,11,56,24.60
2009,06,01,11,57,24.60
2009,06,01,11,58,24.60
2009,06,01,11,59,24.70
2009,06,01,12,00,24.70
2009,06,01,12,01,24.60
2009,06,01,12,02,24.60
2009,06,01,12,03,24.60
2009,06,01,12,04,24.50
2009,06,01,12,05,24.60
2009,06,01,12,06,24.60
2009,06,01,12,07,24.60
2009,06,01,12,08,24.60
2009,06,01,12,09,24.60
2009,06,01,12,10,24.60
2009,06,01,12,11,24.60
2009,06,01,12,12,24.60
2009,06,01,12,13,24.60
2009,06,01,12,14,24.60
2009,06,01,12,15,24.60
2009,06,01,12,16,24.70
2009,06,01,12,17,24.70
2009,06,01,12,18,24.70
2009,06,01,12,19,24.70
2009,06,01,12,20,24.60
2009,06,01,12,21,24.60
2009,06,01,12,22,24.60
2009,06,01,12,23,24.60
2009,06,01,12,24,24.70
2009,06,01,12,25,24.70
2009,06,01,12,26,24.80
2009,06,01,12,27,24.80
2009,06,01,12,28,24.90
2009,06,01,12,29,24.90
2009,06,01,12,30,24.90
2009,06,01,12,31,24.90
2009,06,01,12,32,24.80
2009,06,01,12,33,24.80
2009,06,01,12,34,24.70
2009,06,01,12,35,24.70
2009,06,01,12,36,24.70
2009,06,01,12,37,24.70
2009,06,01,12,38,24.70
2009,06,01,12,39,24.70
2009,06,01,12,40,24.70
2009,06,01,12,41,24.70
2009,06,01,12,42,24.80
2009,06,01,12,43,24.80
2009,06,01,12,44,24.80
2009,06,01,12,45,24.80
2009,06,01,12,46,24.90
2009,06,01,12,47,24.90
2009,06,01,12,48,24.90
2009,06,01,12,49,25.00
2009,06,01,12,50,25.00
2009,06,01,12,51,25.10
2009,06,01,12,52,25.10
2009,06,01,12,53,25.10
2009,06,01,12,54,25.20
2009,06,01,12,55,25.30
2009,06,01,12,56,25.40
2009,06,01,12,57,25.50
2009,06,01,12,58,25.60
2009,06,01,12,59,25.60
2009,06,01,13,00,25.70
2009,06,01,13,01,25.80
2009,06,01,13,02,25.90
2009,06,01,13,03,26.00
2009,06,01,13,04,26.10
2009,06,01,13,05,26.20
2009,06,01,13,06,26.20
2009,06,01,13,07,26.30
2009,06,01,13,08,26.40
2009,06,01,13,09,26.40
2009,06,01,13,10,26.40
2009,06,01,13,11,26.30
2009,06,01,13,12,26.30
2009,06,01,13,13,26.30
2009,06,01,13,14,26.30
2009,06,01,13,15,26.20
2009,06,01,13,16,26.30
2009,06,01,13,17,26.30
2009,06,01,13,18,26.40
2009,06,01,13,19,26.40
2009,06,01,13,20,26.40
2009,06,01,13,21,26.40
2009,06,01,13,22,26.40
2009,06,01,13,23,26.30
2009,06,01,13,24,26.10
2009,06,01,13,25,26.00
2009,06,01,13,26,25.90
2009,06,01,13,27,25.70
2009,06,01,13,28,25.60
2009,06,01,13,29,25.60
2009,06,01,13,30,25.60
2009,06,01,13,31,25.60
2009,06,01,13,32,25.60
2009,06,01,13,33,25.70
2009,06,01,13,34,25.80
2009,06,01,13,35,25.90
2009,06,01,13,36,26.00
2009,06,01,13,37,26.10
2009,06,01,13,38,26.20
2009,06,01,13,39,26.30
2009,06,01,13,40,26.30
2009,06,01,13,41,26.30
2009,06,01,13,42,26.30
2009,06,01,13,43,26.30
2009,06,01,13,44,26.30
2009,06,01,13,45,26.30
2009,06,01,13,46,26.30
2009,06,01,13,47,26.30
2009,06,01,13,48,26.40
2009,06,01,13,49,26.40
2009,06,01,13,50,26.50
2009,06,01,13,51,26.60
2009,06,01,13,52,26.80
2009,06,01,13,53,26.90
2009,06,01,13,54,27.00
2009,06,01,13,55,27.20
2009,06,01,13,56,27.20
2009,06,01,13,57,27.20
2009,06,01,13,58,27.00
2009,06,01,13,59,26.90
2009,06,01,14,00,26.70
2009,06,01,14,01,26.50
2009,06,01,14,02,26.50
2009,06,01,14,03,26.40
2009,06,01,14,04,26.30
2009,06,01,14,05,26.20
2009,06,01,14,06,26.10
2009,06,01,14,07,26.10
2009,06,01,14,08,26.10
2009,06,01,14,09,26.10
2009,06,01,14,10,26.10
2009,06,01,14,11,26.00
2009,06,01,14,12,25.90
2009,06,01,14,13,25.90
2009,06,01,14,14,25.90
2009,06,01,14,15,25.80
2009,06,01,14,16,25.80
2009,06,01,14,17,25.80
2009,06,01,14,18,25.90
2009,06,01,14,19,25.90
2009,06,01,14,20,25.90
2009,06,01,14,21,25.80
2009,06,01,14,22,25.80
2009,06,01,14,23,25.90
2009,06,01,14,24,25.90
2009,06,01,14,25,25.90
2009,06,01,14,26,26.00
2009,06,01,14,27,26.10
2009,06,01,14,28,26.10
2009,06,01,14,29,26.10
2009,06,01,14,30,26.20
2009,06,01,14,31,26.30
2009,06,01,14,32,26.40
2009,06,01,14,33,26.60
2009,06,01,14,34,26.70
2009,06,01,14,35,26.90
2009,06,01,14,36,27.00
2009,06,01,14,37,27.10
2009,06,01,14,38,27.10
2009,06,01,14,39,27.20
2009,06,01,14,40,27.30
2009,06,01,14,41,27.40
2009,06,01,14,42,27.40
2009,06,01,14,43,27.40
2009,06,01,14,44,27.40
2009,06,01,14,45,27.40
2009,06,01,14,46,27.40
2009,06,01,14,47,27.40
2009,06,01,14,48,27.50
2009,06,01,14,49,27.50
2009,06,01,14,50,27.50
2009,06,01,14,51,27.50
2009,06,01,14,52,27.50
2009,06,01,14,53,27.40
2009,06,01,14,54,27.20
2009,06,01,14,55,27.10
2009,06,01,14,56,27.00
2009,06,01,14,57,27.00
2009,06,01,14,58,27.00
2009,06,01,14,59,27.10
2009,06,01,15,00,27.10
2009,06,01,15,01,27.10
2009,06,01,15,02,27.20
2009,06,01,15,03,27.20
2009,06,01,15,04,27.20
2009,06,01,15,05,27.20
2009,06,01,15,06,27.20
2009,06,01,15,07,27.20
2009,06,01,15,08,27.30
2009,06,01,15,09,27.30
2009,06,01,15,10,27.40
2009,06,01,15,11,27.50
2009,06,01,15,12,27.60
2009,06,01,15,13,27.60
2009,06,01,15,14,27.50
2009,06,01,15,15,27.50
2009,06,01,15,16,27.30
2009,06,01,15,17,27.20
2009,06,01,15,18,27.10
2009,06,01,15,19,27.10
2009,06,01,15,20,27.20
2009,06,01,15,21,27.20
2009,06,01,15,22,27.20
2009,06,01,15,23,27.30
2009,06,01,15,24,27.30
2009,06,01,15,25,27.30
2009,06,01,15,26,27.20
2009,06,01,15,27,27.20
2009,06,01,15,28,27.20
2009,06,01,15,29,27.10
2009,06,01,15,30,27.10
2009,06,01,15,31,27.00
2009,06,01,15,32,27.00
2009,06,01,15,33,27.00
2009,06,01,15,34,27.00
2009,06,01,15,35,26.90
2009,06,01,15,36,26.90
2009,06,01,15,37,26.80
2009,06,01,15,38,26.80
2009,06,01,15,39,26.80
2009,06,01,15,40,26.80
2009,06,01,15,41,26.80
2009,06,01,15,42,26.80
2009,06,01,15,43,26.90
2009,06,01,15,44,27.00
2009,06,01,15,45,27.00
2009,06,01,15,46,27.10
2009,06,01,15,47,27.20
2009,06,01,15,48,27.30
2009,06,01,15,49,27.30
2009,06,01,15,50,27.40
2009,06,01,15,51,27.50
2009,06,01,15,52,27.50
2009,06,01,15,53,27.60
2009,06,01,15,54,27.70
2009,06,01,15,55,27.70
2009,06,01,15,56,27.80
2009,06,01,15,57,27.90
2009,06,01,15,58,27.90
2009,06,01,15,59,27.90
2009,06,01,16,00,28.00
2009,06,01,16,01,28.00
2009,06,01,16,02,28.00
2009,06,01,16,03,28.00
2009,06,01,16,04,28.00
2009,06,01,16,05,28.00
2009,06,01,16,06,27.90
2009,06,01,16,07,28.00
2009,06,01,16,08,28.00
2009,06,01,16,09,27.90
2009,06,01,16,10,27.90
2009,06,01,16,11,27.90
2009,06,01,16,12,27.80
2009,06,01,16,13,27.80
2009,06,01,16,14,27.80
2009,06,01,16,15,27.80
2009,06,01,16,16,27.70
2009,06,01,16,17,27.70
2009,06,01,16,18,27.70
2009,06,01,16,19,27.70
2009,06,01,16,20,27.70
2009,06,01,16,21,27.70
2009,06,01,16,22,27.80
2009,06,01,16,23,27.80
2009,06,01,16,24,27.80
2009,06,01,16,25,27.90
2009,06,01,16,26,27.90
2009,06,01,16,27,28.00
2009,06,01,16,28,28.10
2009,06,01,16,29,28.10
2009,06,01,16,30,28.10
2009,06,01,16,31,28.10
2009,06,01,16,32,28.20
2009,06,01,16,33,28.20
2009,06,01,16,34,28.20
2009,06,01,16,35,28.20
2009,06,01,16,36,28.10
2009,06,01,16,37,28.10
2009,06,01,16,38,28.00
2009,06,01,16,39,27.90
2009,06,01,16,40,27.80
2009,06,01,16,41,27.80
2009,06,01,16,42,27.70
2009,06,01,16,43,27.70
2009,06,01,16,44,27.70
2009,06,01,16,45,27.80
2009,06,01,16,46,27.80
2009,06,01,16,47,27.90
2009,06,01,16,48,28.00
2009,06,01,16,49,28.00
2009,06,01,16,50,28.10
2009,06,01,16,51,28.20
2009,06,01,16,52,28.20
2009,06,01,16,53,28.20
2009,06,01,16,54,28.20
2009,06,01,16,55,28.20
2009,06,01,16,56,28.20
2009,06,01,16,57,28.10
2009,06,01,16,58,28.00
2009,06,01,16,59,27.90
2009,06,01,17,00,27.90
2009,06,01,17,01,27.90
2009,06,01,17,02,27.90
2009,06,01,17,03,27.90
2009,06,01,17,04,27.90
2009,06,01,17,05,27.90
2009,06,01,17,06,27.90
2009,06,01,17,07,27.90
2009,06,01,17,08,27.90
2009,06,01,17,09,28.00
2009,06,01,17,10,28.00
2009,06,01,17,11,28.10
2009,06,01,17,12,28.20
2009,06,01,17,13,28.20
2009,06,01,17,14,28.20
2009,06,01,17,15,28.30
2009,06,01,17,16,28.30
2009,06,01,17,17,28.40
2009,06,01,17,18,28.40
2009,06,01,17,19,28.40
2009,06,01,17,20,28.50
2009,06,01,17,21,28.50
2009,06,01,17,22,28.50
2009,06,01,17,23,28.50
2009,06,01,17,24,28.50
2009,06,01,17,25,28.60
2009,06,01,17,26,28.60
2009,06,01,17,27,28.60
2009,06,01,17,28,28.60
2009,06,01,17,29,28.70
2009,06,01,17,30,28.70
2009,06,01,17,31,28.70
2009,06,01,17,32,28.70
2009,06,01,17,33,28.70
2009,06,01,17,34,28.70
2009,06,01,17,35,28.70
2009,06,01,17,36,28.70
2009,06,01,17,37,28.80
2009,06,01,17,38,28.80
2009,06,01,17,39,28.90
2009,06,01,17,40,28.90
2009,06,01,17,41,28.90
2009,06,01,17,42,28.90
2009,06,01,17,43,28.90
2009,06,01,17,44,28.90
2009,06,01,17,45,28.90
2009,06,01,17,46,28.80
2009,06,01,17,47,28.80
2009,06,01,17,48,28.80
2009,06,01,17,49,28.70
2009,06,01,17,50,28.70
2009,06,01,17,51,28.70
2009,06,01,17,52,28.70
2009,06,01,17,53,28.70
2009,06,01,17,54,28.70
2009,06,01,17,55,28.60
2009,06,01,17,56,28.60
2009,06,01,17,57,28.60
2009,06,01,17,58,28.60
2009,06,01,17,59,28.50
2009,06,01,18,00,28.40
2009,06,01,18,01,28.30
2009,06,01,18,02,28.30
2009,06,01,18,03,28.30
2009,06,01,18,04,28.30
2009,06,01,18,05,28.30
2009,06,01,18,06,28.30
2009,06,01,18,07,28.30
2009,06,01,18,08,28.30
2009,06,01,18,09,28.30
2009,06,01,18,10,28.20
2009,06,01,18,11,28.20
2009,06,01,18,12,28.20
2009,06,01,18,13,28.20
2009,06,01,18,14,28.10
2009,06,01,18,15,28.10
2009,06,01,18,16,28.00
2009,06,01,18,17,27.90
2009,06,01,18,18,27.80
2009,06,01,18,19,27.70
2009,06,01,18,20,27.50
2009,06,01,18,21,27.40
2009,06,01,18,22,27.30
2009,06,01,18,23,27.20
2009,06,01,18,24,27.10
2009,06,01,18,25,27.00
2009,06,01,18,26,27.00
2009,06,01,18,27,26.90
2009,06,01,18,28,26.80
2009,06,01,18,29,26.80
2009,06,01,18,30,26.70
2009,06,01,18,31,26.70
2009,06,01,18,32,26.60
2009,06,01,18,33,26.60
2009,06,01,18,34,26.60
2009,06,01,18,35,26.50
2009,06,01,18,36,26.40
2009,06,01,18,37,26.30
2009,06,01,18,38,26.20
2009,06,01,18,39,26.10
2009,06,01,18,40,26.10
2009,06,01,18,41,26.10
2009,06,01,18,42,26.10
2009,06,01,18,43,26.10
2009,06,01,18,44,26.10
2009,06,01,18,45,26.10
2009,06,01,18,46,26.10
2009,06,01,18,47,26.10
2009,06,01,18,48,26.20
2009,06,01,18,49,26.20
2009,06,01,18,50,26.20
2009,06,01,18,51,26.20
2009,06,01,18,52,26.30
2009,06,01,18,53,26.30
2009,06,01,18,54,26.40
2009,06,01,18,55,26.40
2009,06,01,18,56,26.50
2009,06,01,18,57,26.60
2009,06,01,18,58,26.60
2009,06,01,18,59,26.70
2009,06,01,19,00,26.80
2009,06,01,19,01,26.80
2009,06,01,19,02,26.90
2009,06,01,19,03,26.90
2009,06,01,19,04,27.00
2009,06,01,19,05,27.00
2009,06,01,19,06,27.10
2009,06,01,19,07,27.10
2009,06,01,19,08,27.20
2009,06,01,19,09,27.20
2009,06,01,19,10,27.20
2009,06,01,19,11,27.20
2009,06,01,19,12,27.10
2009,06,01,19,13,27.00
2009,06,01,19,14,26.80
2009,06,01,19,15,26.70
2009,06,01,19,16,26.50
2009,06,01,19,17,26.40
2009,06,01,19,18,26.30
2009,06,01,19,19,26.20
2009,06,01,19,20,26.10
2009,06,01,19,21,26.10
2009,06,01,19,22,25.90
2009,06,01,19,23,25.90
2009,06,01,19,24,25.90
2009,06,01,19,25,25.80
2009,06,01,19,26,25.70
2009,06,01,19,27,25.60
2009,06,01,19,28,25.50
2009,06,01,19,29,25.40
2009,06,01,19,30,25.30
2009,06,01,19,31,25.20
2009,06,01,19,32,25.10
2009,06,01,19,33,25.10
2009,06,01,19,34,25.00
2009,06,01,19,35,25.00
2009,06,01,19,36,24.90
2009,06,01,19,37,24.90
2009,06,01,19,38,24.80
2009,06,01,19,39,24.80
2009,06,01,19,40,24.70
2009,06,01,19,41,24.70
2009,06,01,19,42,24.70
2009,06,01,19,43,24.60
2009,06,01,19,44,24.60
2009,06,01,19,45,24.60
2009,06,01,19,46,24.60
2009,06,01,19,47,24.60
2009,06,01,19,48,24.60
2009,06,01,19,49,24.60
2009,06,01,19,50,24.60
2009,06,01,19,51,24.70
2009,06,01,19,52,24.70
2009,06,01,19,53,24.70
2009,06,01,19,54,24.70
2009,06,01,19,55,24.70
2009,06,01,19,56,24.70
2009,06,01,19,57,24.70
2009,06,01,19,58,24.70
2009,06,01,19,59,24.70
2009,06,01,20,00,24.70
2009,06,01,20,01,24.70
2009,06,01,20,02,24.80
2009,06,01,20,03,24.80
2009,06,01,20,04,24.80
2009,06,01,20,05,24.80
2009,06,01,20,06,24.80
2009,06,01,20,07,24.80
2009,06,01,20,08,24.90
2009,06,01,20,09,24.90
2009,06,01,20,10,24.90
2009,06,01,20,11,24.90
2009,06,01,20,12,24.90
2009,06,01,20,13,24.90
2009,06,01,20,14,25.00
2009,06,01,20,15,24.90
2009,06,01,20,16,24.90
2009,06,01,20,17,24.90
2009,06,01,20,18,24.90
2009,06,01,20,19,24.80
2009,06,01,20,20,24.70
2009,06,01,20,21,24.70
2009,06,01,20,22,24.60
2009,06,01,20,23,24.50
2009,06,01,20,24,24.40
2009,06,01,20,25,24.30
2009,06,01,20,26,24.20
2009,06,01,20,27,24.20
2009,06,01,20,28,24.10
2009,06,01,20,29,24.00
2009,06,01,20,30,23.90
2009,06,01,20,31,23.80
2009,06,01,20,32,23.70
2009,06,01,20,33,23.60
2009,06,01,20,34,23.60
2009,06,01,20,35,23.50
2009,06,01,20,36,23.40
2009,06,01,20,37,23.30
2009,06,01,20,38,23.20
2009,06,01,20,39,23.10
2009,06,01,20,40,23.00
2009,06,01,20,41,23.00
2009,06,01,20,42,22.90
2009,06,01,20,43,22.80
2009,06,01,20,44,22.80
2009,06,01,20,45,22.70
2009,06,01,20,46,22.70
2009,06,01,20,47,22.60
2009,06,01,20,48,22.60
2009,06,01,20,49,22.50
2009,06,01,20,50,22.40
2009,06,01,20,51,22.30
2009,06,01,20,52,22.20
2009,06,01,20,53,22.20
2009,06,01,20,54,22.10
2009,06,01,20,55,22.00
2009,06,01,20,56,22.00
2009,06,01,20,57,21.90
2009,06,01,20,58,21.80
2009,06,01,20,59,21.80
2009,06,01,21,00,21.80
2009,06,01,21,01,21.70
2009,06,01,21,02,21.70
2009,06,01,21,03,21.70
2009,06,01,21,04,21.60
2009,06,01,21,05,21.60
2009,06,01,21,06,21.50
2009,06,01,21,07,21.50
2009,06,01,21,08,21.40
2009,06,01,21,09,21.40
2009,06,01,21,10,21.40
2009,06,01,21,11,21.40
2009,06,01,21,12,21.40
2009,06,01,21,13,21.30
2009,06,01,21,14,21.30
2009,06,01,21,15,21.30
2009,06,01,21,16,21.30
2009,06,01,21,17,21.30
2009,06,01,21,18,21.30
2009,06,01,21,19,21.20
2009,06,01,21,20,21.20
2009,06,01,21,21,21.10
2009,06,01,21,22,21.00
2009,06,01,21,23,21.00
2009,06,01,21,24,20.90
2009,06,01,21,25,20.80
2009,06,01,21,26,20.70
2009,06,01,21,27,20.60
2009,06,01,21,28,20.50
2009,06,01,21,29,20.50
2009,06,01,21,30,20.40
2009,06,01,21,31,20.30
2009,06,01,21,32,20.20
2009,06,01,21,33,20.10
2009,06,01,21,34,20.10
2009,06,01,21,35,20.00
2009,06,01,21,36,19.90
2009,06,01,21,37,19.80
2009,06,01,21,38,19.80
2009,06,01,21,39,19.70
2009,06,01,21,40,19.70
2009,06,01,21,41,19.60
2009,06,01,21,42,19.70
2009,06,01,21,43,19.60
2009,06,01,21,44,19.60
2009,06,01,21,45,19.60
2009,06,01,21,46,19.60
2009,06,01,21,47,19.60
2009,06,01,21,48,19.50
2009,06,01,21,49,19.50
2009,06,01,21,50,19.40
2009,06,01,21,51,19.40
2009,06,01,21,52,19.40
2009,06,01,21,53,19.40
2009,06,01,21,54,19.40
2009,06,01,21,55,19.50
2009,06,01,21,56,19.50
2009,06,01,21,57,19.60
2009,06,01,21,58,19.60
2009,06,01,21,59,19.70
2009,06,01,22,00,19.70
2009,06,01,22,01,19.70
2009,06,01,22,02,19.70
2009,06,01,22,03,19.60
2009,06,01,22,04,19.60
2009,06,01,22,05,19.50
2009,06,01,22,06,19.40
2009,06,01,22,07,19.40
2009,06,01,22,08,19.40
2009,06,01,22,09,19.30
2009,06,01,22,10,19.30
2009,06,01,22,11,19.20
2009,06,01,22,12,19.20
2009,06,01,22,13,19.20
2009,06,01,22,14,19.10
2009,06,01,22,15,19.10
2009,06,01,22,16,19.10
2009,06,01,22,17,19.00
2009,06,01,22,18,19.00
2009,06,01,22,19,19.00
2009,06,01,22,20,18.90
2009,06,01,22,21,18.90
2009,06,01,22,22,18.90
2009,06,01,22,23,18.80
2009,06,01,22,24,18.80
2009,06,01,22,25,18.80
2009,06,01,22,26,18.70
2009,06,01,22,27,18.70
2009,06,01,22,28,18.70
2009,06,01,22,29,18.60
2009,06,01,22,30,18.60
2009,06,01,22,31,18.60
2009,06,01,22,32,18.50
2009,06,01,22,33,18.50
2009,06,01,22,34,18.50
2009,06,01,22,35,18.40
2009,06,01,22,36,18.40
2009,06,01,22,37,18.30
2009,06,01,22,38,18.30
2009,06,01,22,39,18.20
2009,06,01,22,40,18.20
2009,06,01,22,41,18.20
2009,06,01,22,42,18.20
2009,06,01,22,43,18.10
2009,06,01,22,44,18.10
2009,06,01,22,45,18.10
2009,06,01,22,46,18.10
2009,06,01,22,47,18.10
2009,06,01,22,48,18.10
2009,06,01,22,49,18.10
2009,06,01,22,50,18.10
2009,06,01,22,51,18.10
2009,06,01,22,52,18.10
2009,06,01,22,53,18.10
2009,06,01,22,54,18.10
2009,06,01,22,55,18.10
2009,06,01,22,56,18.10
2009,06,01,22,57,18.10
2009,06,01,22,58,18.10
2009,06,01,22,59,18.10
2009,06,01,23,00,18.10
2009,06,01,23,01,18.10
2009,06,01,23,02,18.10
2009,06,01,23,03,18.10
2009,06,01,23,04,18.10
2009,06,01,23,05,18.10
2009,06,01,23,06,18.10
2009,06,01,23,07,18.10
2009,06,01,23,08,18.10
2009,06,01,23,09,18.10
2009,06,01,23,10,18.10
2009,06,01,23,11,18.00
2009,06,01,23,12,18.00
2009,06,01,23,13,18.00
2009,06,01,23,14,18.00
2009,06,01,23,15,18.00
2009,06,01,23,16,18.00
2009,06,01,23,17,18.00
2009,06,01,23,18,18.00
2009,06,01,23,19,18.10
2009,06,01,23,20,18.10
2009,06,01,23,21,18.10
2009,06,01,23,22,18.10
2009,06,01,23,23,18.10
2009,06,01,23,24,18.00
2009,06,01,23,25,18.00
2009,06,01,23,26,18.00
2009,06,01,23,27,17.90
2009,06,01,23,28,17.90
2009,06,01,23,29,17.90
2009,06,01,23,30,17.90
2009,06,01,23,31,17.90
2009,06,01,23,32,17.90
2009,06,01,23,33,17.90
2009,06,01,23,34,17.90
2009,06,01,23,35,17.90
2009,06,01,23,36,18.00
2009,06,01,23,37,18.00
2009,06,01,23,38,18.00
2009,06,01,23,39,18.10
2009,06,01,23,40,18.10
2009,06,01,23,41,18.10
2009,06,01,23,42,18.20
2009,06,01,23,43,18.20
2009,06,01,23,44,18.30
2009,06,01,23,45,18.30
2009,06,01,23,46,18.30
2009,06,01,23,47,18.30
2009,06,01,23,48,18.40
2009,06,01,23,49,18.40
2009,06,01,23,50,18.40
2009,06,01,23,51,18.50
2009,06,01,23,52,18.50
2009,06,01,23,53,18.60
2009,06,01,23,54,18.60
2009,06,01,23,55,18.60
2009,06,01,23,56,18.60
2009,06,01,23,57,18.50
2009,06,01,23,58,18.50
2009,06,01,23,59,18.50
